Location: Newark
(48.9886°N, 1.2358°E)
Time: 04:37:33
(UTC+00:00)

Transit 4A - Pass Details

Date: 26 November 2019
Orbit: 870 x 975 km, 66.8° (Epoch: 09 December)

Event Time Altitude Azimuth Distance (km) Brightness Sun altitude
Exits shadow 04:41:21 49° 331° (NNW) 1,125 8.1 -25.5°
Maximum altitude 04:43:02 84° 54° (NE) 889 7.7 -25.2°
Drops below altitude 10° 04:48:51 10° 143° (SE) 2,513 10.7 -24.2°
Sets 04:51:19 0° 145° (SE) 3,445 11.4 -23.8°
